Weather in Nekrasovka

Russia / Amur Oblast     50°40′42″N   128°21′09″E
temp.,
°C
wind,
m/s
gust,
m/s
humid.,
%
clouds,
%
prec.,
mm/h
press.,
hPa
HPBL,
m
27 november, sat
sat2700:00−19s229817 0.0 102910
03:00−19s329916 0.0 103025
06:00−20s2210040 0.0 103033
09:00−17s36946 0.0 103077
12:00−10ssw4786100 0.0 1029189
15:00−9s488997 0.0 1029204
18:00−12sse4109340 0.0 1029139
21:00−12s41191100 0.0 1028164
28 november, sun
sun2800:00−11s4991100 0.0 1028178
03:00−13s3895100 0.0 1026145
06:00−13s3697100 0.1 1025128
09:00−14sw239799 0.2 102568
12:00−11wnw2393100 0.1 1024239
15:00−10nnw2693100 0.1 1023357
18:00−15nw119995 0.0 10239
21:00−9nw3896100 0.3 1023344
29 november, mon
mon2900:00−9nw51092100 0.6 1023493
03:00−10nw51182100 0.7 1023467
06:00−15wnw38885 0.0 1025109
09:00−18wnw38895 0.0 1027108
12:00−12nw37791 0.0 1027385
15:00−13w11875 0.0 10279
18:00−20s2294100 0.0 10289
21:00−17ssw2292100 0.0 102830
30 november, tue
tue3000:00−17s2293100 0.0 102733
03:00−18s229484 0.0 102637
06:00−21se229882 0.0 102519
09:00−20sse119863 0.0 102525
12:00−15n119371 0.0 1023121
15:00−14nne229514 0.0 102221
18:00−22nne2210058 0.0 102214
21:00−24n2210086 0.0 102124
1 december, wed
wed100:00−22n3710099 0.0 102084
03:00−22nnw4109910 0.0 1018127
06:00−21nnw410925 0.0 1017156
09:00−20nw412925 0.0 1016234
12:00−14nnw614865 0.0 1013499
15:00−13nnw613835 0.0 1010564
18:00−18nw49935 0.0 101099
21:00−21nw37975 0.0 100865